Location: B?dimalle
(17.1788°N, 80.5377°E)
Time: 19:59:25
(UTC+00:00)

Vanguard 3 - All Passes

Search period start: 15 February 2026 00:00
Search period end: 25 February 2026 00:00
Orbit: 507 x 3205 km, 33.3° (Epoch: 15 February)

Date Brightness Start Highest point End Pass type
(mag) Time Alt. Az. Time Alt. Az. Time Alt. Az.
15 Feb - 06:52:41 10° SSW 07:06:32 29° SSE 07:16:13 10° E daylight
15 Feb - 09:06:38 10° SW 09:21:10 74° SSE 09:29:09 10° ENE daylight
15 Feb - 11:24:33 10° W 11:33:29 37° NNW 11:38:54 10° NE daylight
15 Feb - 13:43:57 10° NNW 13:45:49 12° NNW 13:47:28 10° N visible
15 Feb - 15:56:22 10° NNW 15:58:33 15° NNE 16:00:43 10° NE night (unlit)
15 Feb - 18:05:43 10° WNW 18:09:31 77° SSW 18:14:48 10° SE night (unlit)
15 Feb - 20:18:31 10° SW 20:21:21 14° SSW 20:24:51 10° S night (unlit)
16 Feb - 05:30:43 10° S 05:41:38 18° SSE 05:50:41 10° ESE daylight
16 Feb - 07:41:52 10° SW 07:57:43 48° SSE 08:07:26 10° ENE daylight
16 Feb - 09:58:11 10° WSW 10:11:17 68° NNW 10:18:28 10° NE daylight
16 Feb - 12:17:37 10° WNW 12:23:31 21° NNW 12:27:40 10° NNE daylight
16 Feb - 14:35:20 10° NNW 14:36:22 11° N 14:37:21 10° NNE visible
16 Feb - 16:44:58 10° NW 16:48:21 34° NNE 16:52:05 10° E night (unlit)
16 Feb - 18:55:40 10° W 18:59:12 26° SSW 19:04:04 10° SSE night (unlit)
17 Feb - 06:18:11 10° SSW 06:33:24 32° SSE 06:44:21 10° E daylight
17 Feb - 08:32:21 10° SW 08:48:25 77° SSE 08:57:28 10° ENE daylight
17 Feb - 10:50:48 10° W 11:01:16 40° NNW 11:07:27 10° NE daylight
17 Feb - 13:10:35 10° NW 13:13:55 14° NNW 13:16:38 10° NNE visible
17 Feb - 15:24:11 10° NNW 15:26:45 16° NNE 15:29:08 10° NE visible
17 Feb - 17:34:09 10° WNW 17:37:47 70° SSW 17:42:20 10° SE night (unlit)
18 Feb - 04:56:13 10° S 05:08:21 20° SSE 05:18:39 10° ESE daylight
18 Feb - 07:07:27 10° SW 07:24:38 52° SSE 07:35:34 10° ENE daylight
18 Feb - 09:24:02 10° WSW 09:38:42 68° NNW 09:46:51 10° NE daylight
18 Feb - 11:44:04 10° WNW 11:51:27 25° NNW 11:56:23 10° NNE daylight
18 Feb - 14:02:04 10° NNW 14:04:31 13° N 14:06:38 10° NNE visible
18 Feb - 16:13:04 10° NW 16:16:38 36° NNE 16:20:09 10° E night (unlit)
18 Feb - 18:24:21 10° W 18:27:23 21° SSW 18:31:10 10° SSE night (unlit)
19 Feb - 03:41:38 10° SSE 03:42:31 10° SSE 03:43:23 10° SE daylight
19 Feb - 05:43:49 10° SSW 06:00:04 34° SSE 06:12:15 10° E daylight
19 Feb - 07:58:00 10° SW 08:15:27 80° SSE 08:25:39 10° ENE daylight
19 Feb - 10:16:50 10° W 10:28:53 43° NNW 10:35:56 10° NE daylight
19 Feb - 12:37:07 10° NW 12:41:58 17° NNW 12:45:36 10° NNE daylight
19 Feb - 14:51:43 10° NNW 14:54:58 18° NNE 14:57:42 10° ENE visible
19 Feb - 17:02:27 10° WNW 17:06:05 62° SSW 17:10:05 10° SE night (unlit)
20 Feb - 04:22:01 10° S 04:34:54 21° SE 04:46:17 10° ESE daylight
20 Feb - 06:33:06 10° SW 06:51:19 55° SSE 07:03:31 10° ENE daylight
20 Feb - 08:49:45 10° WSW 09:05:55 69° NNW 09:15:07 10° NE daylight
20 Feb - 11:10:17 10° WNW 11:19:16 28° NNW 11:25:01 10° NE daylight
20 Feb - 13:28:51 10° NW 13:32:39 16° N 13:35:38 10° NE visible
20 Feb - 15:40:58 10° NW 15:44:55 40° NNE 15:48:23 10° E visible
20 Feb - 17:52:59 10° WSW 17:55:34 18° SSW 17:58:30 10° SSE night (unlit)
21 Feb - 03:06:07 10° SSE 03:09:10 10° SE 03:12:13 10° SE daylight
21 Feb - 05:09:39 10° SSW 05:26:32 36° SE 05:39:56 10° E daylight
21 Feb - 07:23:38 10° SW 07:42:13 82° SSE 07:53:41 10° ENE daylight
21 Feb - 09:42:40 10° W 09:56:19 45° NNW 10:04:20 10° NE daylight
21 Feb - 12:03:31 10° WNW 12:09:56 21° N 12:14:27 10° NE daylight
21 Feb - 14:19:01 10° NW 14:23:10 22° NNE 14:26:22 10° ENE visible
21 Feb - 16:30:35 10° WNW 16:34:22 56° SSW 16:38:04 10° SE night (unlit)
22 Feb - 03:48:06 10° S 04:01:20 22° SE 04:13:36 10° E daylight
22 Feb - 05:58:53 10° SW 06:17:46 57° SE 06:31:17 10° ENE daylight
22 Feb - 08:15:25 10° WSW 08:32:54 69° NNW 08:43:16 10° NE daylight
22 Feb - 10:36:17 10° WNW 10:46:56 31° NNW 10:53:36 10° NE daylight
22 Feb - 12:55:29 10° NW 13:00:43 20° N 13:04:32 10° NE visible
22 Feb - 15:08:37 10° NW 15:13:12 45° NNE 15:16:46 10° E visible
22 Feb - 17:21:31 10° WSW 17:23:44 15° SW 17:26:02 10° S night (unlit)
23 Feb - 02:32:21 10° SSE 02:35:48 11° SE 02:39:16 10° SE daylight
23 Feb - 04:35:41 10° SSW 04:52:49 38° SE 05:07:22 10° E daylight
23 Feb - 06:49:22 10° SW 07:08:46 84° SSE 07:21:33 10° ENE daylight
23 Feb - 09:08:23 10° W 09:23:33 47° NNW 09:32:37 10° NE daylight
23 Feb - 11:29:41 10° WNW 11:37:48 24° N 11:43:12 10° NE daylight
23 Feb - 13:46:04 10° NW 13:51:19 26° NNE 13:55:02 10° ENE visible
23 Feb - 15:58:30 10° WNW 16:02:39 52° SW 16:06:12 10° SE visible
24 Feb - 03:14:29 10° S 03:27:41 23° SE 03:40:37 10° E daylight
24 Feb - 05:24:50 10° SW 05:44:01 59° SE 05:58:51 10° ENE daylight
24 Feb - 07:41:06 10° WSW 07:59:39 70° NNW 08:11:16 10° NE daylight
24 Feb - 10:02:06 10° WNW 10:14:26 34° NNW 10:22:03 10° NE daylight
24 Feb - 12:21:55 10° NW 12:28:44 24° N 12:33:19 10° NE daylight
24 Feb - 14:36:01 10° NW 14:41:26 52° NNE 14:45:13 10° ESE visible
24 Feb - 16:49:51 10° WSW 16:51:50 14° SW 16:53:48 10° S night (unlit)
